[[{"header":{"parameterUnit":"m.s-1","parameterCategory":1,"la1":30.2991,"la2":30.254,"lo1":-89.0895,"lo2":-89.0444,"dy":0.0017,"dx":0.0017,"nx":28,"ny":28,"refTime":"2025-08-02T09:00:00:Z","depth":0,"parameterNumber":2,"parameterNumberName":"U-component_of_WINDS"},"data":[0,0,0,0,0,0,0,0,0,0,0,0,0,0,0,0,0,0,0,0,0,0,0,0,0,0,0,0,0,0,0,0,0,0,0,0,0,0,0,0,0,0,0,0,0,0,0,0,0,0,0,0,0,0,0,0,0,0,1.0737,1.0737,0,1.0805,1.0806,1.0807,1.0847,1.0847,1.0847,1.0847,1.092,1.0921,1.0923,0,0,0,0,0,0,0,0,0,0,0,0,0,1.0643,1.0644,1.0736,1.0737,1.0738,1.0805,1.0806,1.0807,1.0846,1.0847,1.0847,1.0847,1.0919,1.0921,1.0923,0,0,0,0,0,0,0,0,0,0,0,0,0,1.0695,1.0645,1.0736,1.0766,1.0769,1.0805,1.0806,1.0807,1.0846,1.0847,1.0847,1.0847,1.0918,1.0921,1.0924,1.0936,0,0,1.0932,1.0933,0,0,0,0,0,0,0,0,1.0692,1.0698,1.0761,1.0764,1.0768,1.0818,1.08,1.0851,1.0846,1.0817,1.0847,1.0847,1.0886,1.0891,1.0904,1.0939,1.0943,1.0932,1.0934,1.0935,1.0936,0,0,0,0,0,0,0,1.0688,1.0695,1.0764,1.0762,1.0766,1.0777,1.0784,1.081,1.0849,1.082,1.0823,1.083,1.0888,1.0901,1.0906,1.0944,1.0932,1.0934,1.0936,1.0937,1.0995,1.0995,0,0,0,0,0,0,1.0679,1.0692,1.0762,1.0766,1.0729,1.0778,1.0787,1.0801,1.0849,1.0857,1.083,1.0832,1.0896,1.0902,1.0908,1.0927,1.0935,1.0937,1.0939,1.0995,1.0995,1.0995,0,0,0,0,0,0,1.0677,1.0685,1.0759,1.073,1.074,1.078,1.0796,1.0803,1.0816,1.0857,1.0865,1.0836,1.0897,1.0904,1.0929,1.093,1.0939,1.0941,1.0995,1.0995,1.0995,1.0963,0,0,0,0,0,0,1.0674,1.0684,1.0688,1.073,1.0741,1.0777,1.0796,1.0804,1.082,1.0823,1.0865,1.0872,1.0897,1.0925,1.0932,1.0934,1.0943,1.0995,1.0995,1.0995,1.0964,1.0962,1.096,0,0,0,0,0,1.0671,1.0677,1.0688,1.0696,1.0747,1.0777,1.0784,1.0813,1.082,1.0825,1.0852,1.087,1.0929,1.0927,1.0935,1.0938,1.0995,1.0995,1.0995,1.0965,1.0962,1.096,0,0,0,0,0,0,1.0635,1.0683,1.0696,1.0715,1.0742,1.0784,1.0791,1.0809,1.0834,1.0836,1.0872,1.0881,1.0902,1.0923,1.092,1.0953,1.0964,1.0966,1.0939,1.0937,1.0934,1.0929,1.0945,0,0,0,0,0,1.0629,1.0648,1.069,1.0703,1.0715,1.0751,1.0765,1.0785,1.0814,1.0826,1.0854,1.0883,1.0908,1.0923,1.0948,1.0968,1.0978,1.0974,1.0972,1.097,1.0971,1.0984,1.0983,1.0994,1.0994,1.0994,0,0,1.0617,1.0646,1.0656,1.0696,1.0719,1.074,1.076,1.078,1.0796,1.0829,1.0854,1.0876,1.091,1.0933,1.0944,1.095,1.097,1.097,1.0968,1.097,1.0983,1.0982,1.0981,1.0994,1.0994,1.0994,0,0,1.0607,1.063,1.0644,1.0667,1.0701,1.0725,1.0728,1.0768,1.0784,1.0809,1.0835,1.0855,1.0897,1.092,1.0938,1.0938,1.0956,1.0945,1.0934,1.0946,1.0945,1.0944,1.0945,1.0945,1.0946,1.0946,1.0946,0,1.0588,1.0619,1.0649,1.0668,1.0686,1.0716,1.0732,1.0753,1.0794,1.0806,1.0812,1.0866,1.0891,1.092,1.092,1.0933,1.0939,1.094,1.0943,1.0942,1.0942,1.0943,1.0943,1.0944,1.0944,1.0945,1.0945,0,1.0595,1.0616,1.0624,1.0662,1.0681,1.0698,1.0732,1.0747,1.0766,1.0789,1.0816,1.0847,1.088,1.0888,1.0907,1.092,1.0923,1.0936,1.0947,1.0939,1.0941,1.0941,1.0942,1.0943,1.0943,1.0943,0,0,1.0562,1.0618,1.0621,1.0639,1.068,1.0698,1.0717,1.0748,1.0761,1.0789,1.0807,1.0842,1.0854,1.0874,1.0896,1.0907,1.0906,1.0919,1.092,1.0916,1.0924,1.0914,1.0914,1.0919,1.0919,1.0919,1.0921,0,1.0558,1.0593,1.0622,1.0647,1.0667,1.0697,1.0715,1.0742,1.0765,1.0787,1.0813,1.0837,1.0851,1.0864,1.0876,1.0903,1.0908,1.0904,1.0936,1.0937,1.0927,1.0915,1.0904,1.0905,1.0922,1.0922,1.0922,0,1.0557,1.0584,1.061,1.0651,1.066,1.0675,1.0707,1.0727,1.076,1.0776,1.0798,1.0821,1.0844,1.0854,1.0887,1.0883,1.0899,1.0914,1.0915,1.0919,1.0929,1.0919,1.0906,1.0906,1.0923,1.0923,1.0923,0,1.0532,1.0574,1.0596,1.0611,1.0658,1.0668,1.0688,1.0721,1.0738,1.0767,1.0779,1.0809,1.0826,1.085,1.0881,1.0885,1.0911,1.0923,1.0926,1.0925,1.093,1.0929,1.0919,1.0939,1.0939,1.0939,1.0939,0,1.0524,1.0539,1.0585,1.0599,1.0617,1.0651,1.0669,1.0692,1.0721,1.074,1.0769,1.0786,1.0826,1.0849,1.0874,1.0898,1.0905,1.092,1.0926,1.0917,1.0915,1.0928,1.0928,1.0939,1.0939,1.0939,1.0939,0,1.0498,1.0529,1.0555,1.0598,1.0609,1.0621,1.0659,1.0673,1.0698,1.0723,1.073,1.0769,1.0798,1.0831,1.0871,1.0888,1.091,1.0919,1.0899,1.0902,1.0904,1.0903,1.0901,1.0903,1.0921,1.0921,1.0921,0,1.0491,1.0504,1.0548,1.0563,1.0582,1.0605,1.0623,1.0657,1.0675,1.0714,1.0725,1.0755,1.0782,1.0826,1.0859,1.089,1.09,1.0898,1.0905,1.0896,1.0901,1.09,1.0902,1.0895,1.0895,1.0895,1.0894,0,1.0475,1.049,1.0515,1.0545,1.0566,1.0592,1.0619,1.063,1.067,1.0688,1.0718,1.0738,1.0779,1.0809,1.0845,1.0867,1.0888,1.0892,1.0894,1.0885,1.0873,1.088,1.0893,1.0892,1.0892,1.0892,1.0892,1.0892,1.0459,1.0472,1.0506,1.0532,1.0556,1.0581,1.0598,1.0625,1.065,1.0685,1.0704,1.0733,1.0767,1.0817,1.0838,1.0862,1.0869,1.0873,1.0874,1.0874,1.0872,1.0869,1.0869,1.0869,1.0869,1.0869,1.0869,0,1.0445,1.0469,1.0493,1.053,1.0551,1.0569,1.06,1.0617,1.0642,1.0672,1.0697,1.0732,1.0762,1.0797,1.083,1.0843,1.0853,1.085,1.085,1.0855,1.0863,1.0858,1.0841,1.0841,1.0841,1.0841,1.0841,1.0841,1.0441,1.0464,1.0483,1.0519,1.0543,1.0571,1.0588,1.0611,1.0635,1.0672,1.0697,1.072,1.0753,1.0788,1.0817,1.0827,1.0838,1.0832,1.0845,1.0852,1.0854,1.0856,1.0852,1.0834,1.0834,1.0834,1.0834,1.0834]},{"header":{"parameterUnit":"m.s-1","parameterCategory":1,"la1":30.2991,"la2":30.254,"lo1":-89.0895,"lo2":-89.0444,"dy":0.0017,"dx":0.0017,"nx":28,"ny":28,"refTime":"2025-08-02T09:00:00:Z","depth":0,"parameterNumber":3,"parameterNumberName":"V-component_of_WINDS"},"data":[0,0,0,0,0,0,0,0,0,0,0,0,0,0,0,0,0,0,0,0,0,0,0,0,0,0,0,0,0,0,0,0,0,0,0,0,0,0,0,0,0,0,0,0,0,0,0,0,0,0,0,0,0,0,0,0,0,0,1.0739,1.0739,0,1.0746,1.0746,1.0746,1.076,1.0761,1.0761,1.0761,1.0767,1.0766,1.0766,0,0,0,0,0,0,0,0,0,0,0,0,0,1.0736,1.0736,1.0739,1.0739,1.0739,1.0746,1.0746,1.0746,1.076,1.0761,1.0761,1.0761,1.0767,1.0766,1.0766,0,0,0,0,0,0,0,0,0,0,0,0,0,1.0739,1.0736,1.0739,1.0747,1.0748,1.0746,1.0746,1.0746,1.076,1.0761,1.0761,1.0761,1.0767,1.0766,1.0766,1.0756,0,0,1.0766,1.0765,0,0,0,0,0,0,0,0,1.0739,1.0739,1.0746,1.0747,1.0747,1.0753,1.0746,1.0749,1.076,1.0755,1.0761,1.0762,1.0761,1.0762,1.0762,1.0756,1.0756,1.0766,1.0765,1.0765,1.0765,0,0,0,0,0,0,0,1.0739,1.0739,1.0742,1.0746,1.0747,1.0749,1.075,1.0747,1.0756,1.0756,1.0757,1.0758,1.0762,1.0762,1.0762,1.0757,1.0766,1.0765,1.0765,1.0765,1.074,1.0739,0,0,0,0,0,0,1.0737,1.0739,1.0741,1.0742,1.0744,1.0749,1.075,1.075,1.0756,1.0757,1.0757,1.0758,1.0762,1.0762,1.0762,1.0749,1.0765,1.0765,1.0765,1.074,1.074,1.0739,0,0,0,0,0,0,1.0737,1.0738,1.0741,1.074,1.0741,1.0749,1.0749,1.075,1.0751,1.0757,1.0758,1.0756,1.0763,1.0763,1.0757,1.0749,1.0765,1.0765,1.0741,1.074,1.0739,1.0723,0,0,0,0,0,0,1.0737,1.0737,1.0735,1.074,1.0741,1.0737,1.0748,1.075,1.075,1.0752,1.0756,1.0757,1.0763,1.0757,1.0757,1.0749,1.0765,1.0742,1.0741,1.074,1.0725,1.0722,1.072,0,0,0,0,0,1.0737,1.073,1.0734,1.0735,1.0738,1.0736,1.0736,1.0744,1.075,1.0746,1.075,1.0757,1.075,1.0756,1.0756,1.0749,1.0742,1.0741,1.074,1.0726,1.0723,1.072,0,0,0,0,0,0,1.0723,1.0731,1.0736,1.0731,1.0733,1.0739,1.0735,1.074,1.074,1.0742,1.075,1.0751,1.0743,1.0746,1.0752,1.0738,1.0747,1.0746,1.0737,1.0734,1.0732,1.0731,1.0765,0,0,0,0,0,1.072,1.0719,1.0725,1.072,1.072,1.0727,1.0727,1.0732,1.0734,1.0735,1.0738,1.0739,1.0737,1.0736,1.0734,1.0725,1.0725,1.0719,1.0717,1.0715,1.0714,1.0706,1.0703,1.0735,1.0735,1.0735,0,0,1.0712,1.0716,1.0715,1.0717,1.0719,1.0716,1.0728,1.0725,1.0723,1.0734,1.0729,1.0731,1.0732,1.0724,1.0721,1.0726,1.0705,1.0713,1.0712,1.0712,1.0705,1.0702,1.0699,1.0734,1.0734,1.0735,0,0,1.0697,1.0701,1.0696,1.0697,1.07,1.0704,1.0703,1.0707,1.0709,1.0704,1.0712,1.0708,1.0705,1.0705,1.0705,1.0687,1.0693,1.0686,1.0674,1.0667,1.0665,1.0662,1.0654,1.0652,1.0685,1.0685,1.0685,0,1.0688,1.0685,1.0693,1.0689,1.0688,1.0698,1.0692,1.0693,1.0695,1.0694,1.0699,1.0694,1.0696,1.0687,1.0682,1.0682,1.0679,1.0686,1.0664,1.0662,1.066,1.0653,1.065,1.0684,1.0684,1.0684,1.0684,0,1.0672,1.067,1.0665,1.0666,1.0665,1.066,1.0666,1.0664,1.0668,1.0671,1.0664,1.0667,1.0665,1.0663,1.0668,1.0654,1.0656,1.0663,1.0673,1.0656,1.0649,1.0646,1.0683,1.0683,1.0683,1.0683,0,0,1.065,1.0654,1.0652,1.0652,1.0654,1.0652,1.0646,1.0645,1.0642,1.0642,1.0636,1.0632,1.0638,1.0637,1.0642,1.0636,1.0619,1.0643,1.0643,1.0637,1.0601,1.0595,1.0592,1.0623,1.0622,1.0622,1.06,0,1.0635,1.0627,1.0632,1.0622,1.0619,1.0627,1.0621,1.0622,1.0624,1.062,1.0622,1.0618,1.0627,1.0626,1.062,1.0622,1.0611,1.0624,1.0616,1.0616,1.0615,1.0589,1.0583,1.0563,1.0598,1.0597,1.0597,0,1.0617,1.0616,1.0606,1.0606,1.0605,1.0601,1.0598,1.0595,1.0594,1.0596,1.0594,1.0599,1.0592,1.0601,1.0591,1.0599,1.0596,1.0596,1.0595,1.0594,1.0605,1.0586,1.0557,1.0554,1.0593,1.0594,1.0594,0,1.0601,1.0596,1.0589,1.0589,1.059,1.0586,1.0586,1.0586,1.0583,1.0581,1.0579,1.0575,1.0573,1.057,1.0573,1.058,1.0561,1.0572,1.0561,1.0561,1.0557,1.0557,1.0526,1.0556,1.0556,1.0556,1.0556,0,1.0583,1.0576,1.0581,1.0577,1.0568,1.0573,1.0565,1.0565,1.0565,1.0559,1.0566,1.056,1.0565,1.056,1.0562,1.0552,1.0551,1.0551,1.0552,1.055,1.055,1.0548,1.0549,1.0555,1.0556,1.0556,1.0556,0,1.0564,1.0567,1.0559,1.056,1.056,1.0553,1.0554,1.0549,1.055,1.0543,1.0541,1.0544,1.0537,1.054,1.0534,1.0535,1.0521,1.0524,1.0521,1.0522,1.0511,1.0511,1.0477,1.0472,1.0506,1.0506,1.0506,0,1.0552,1.0547,1.0546,1.0543,1.0543,1.0538,1.0535,1.0539,1.0536,1.0533,1.0527,1.0521,1.0517,1.0506,1.0506,1.0501,1.0503,1.0491,1.0502,1.05,1.0501,1.0501,1.0499,1.0489,1.0488,1.0488,1.0488,0,1.0531,1.0532,1.0528,1.0524,1.052,1.0517,1.0514,1.0511,1.0514,1.051,1.0503,1.05,1.0492,1.0485,1.048,1.0478,1.0483,1.0484,1.0481,1.0479,1.0477,1.0477,1.0514,1.0485,1.0485,1.0486,1.0486,1.0486,1.0514,1.0509,1.0507,1.0501,1.0499,1.0496,1.0491,1.0491,1.0485,1.0479,1.0482,1.0473,1.047,1.0463,1.0461,1.0453,1.0458,1.0454,1.0453,1.0452,1.0449,1.0479,1.0453,1.0453,1.0453,1.0453,1.0453,0,1.0492,1.049,1.0485,1.0481,1.0476,1.048,1.0477,1.0472,1.0464,1.0461,1.0456,1.0447,1.044,1.0439,1.0431,1.0425,1.0427,1.0423,1.0423,1.0423,1.0447,1.0449,1.0422,1.0422,1.0422,1.0422,1.0422,1.0422,1.048,1.047,1.047,1.0459,1.0457,1.0449,1.0446,1.0443,1.044,1.0429,1.0423,1.0422,1.0419,1.0411,1.0404,1.0404,1.04,1.0395,1.0396,1.0418,1.0421,1.0424,1.0427,1.0395,1.0395,1.0372,1.0372,1.0372]}]]